Theta_e
305 298 294 297 300 300 298 296 295 299 303 300 300 300 303 307 308 307 309 310 312 313 317 319 321 322 326 329 330 330 331 333 333 331 329 328 326 328 329 331 331 330 330 329
299 293 300 301 301 299 298 295 293 297 301 300 298 296 300 302 303 306 307 308 309 311 313 316 318 321 321 323 328 329 330 331 332 333 332 330 329 329 330 330 330 330 329 329
294 296 301 299 297 295 295 294 294 293 297 299 296 293 295 299 302 304 305 307 308 309 310 312 314 314 318 319 324 327 330 331 332 333 333 332 331 330 328 328 328 329 329 329
295 299 295 297 295 296 291 298 296 294 293 287 295 284 293 296 297 299 301 303 305 307 309 310 311 312 314 318 320 324 327 330 331 333 332 330 328 326 327 327 328 328 329 328
292 294 293 292 293 297 293 297 295 293 291 290 290 287 291 296 294 296 300 301 303 305 307 308 309 311 313 318 319 321 322 326 331 332 332 330 329 330 330 329 328 328 328 328
295 298 297 295 296 297 298 295 293 293 291 283 288 287 287 291 294 297 299 301 303 304 306 308 310 311 312 317 320 321 319 320 325 330 331 331 329 329 328 328 327 327 327 327
292 292 296 297 293 297 295 290 283 281 281 280 289 286 289 294 297 297 298 300 303 304 305 306 308 310 312 314 317 318 318 317 319 323 328 330 330 329 328 328 328 326 326 326
284 281 290 296 293 291 292 290 283 277 279 282 289 283 288 297 299 300 301 301 304 304 305 306 307 309 310 312 314 314 315 316 317 317 321 326 330 330 329 329 328 328 327 327
284 283 293 294 295 294 290 287 292 285 284 281 285 289 294 297 297 299 300 301 302 302 303 304 306 307 307 308 310 312 313 314 315 316 316 319 324 328 328 329 329 328 329 328
289 283 290 292 295 295 292 294 285 287 277 276 282 284 286 292 294 297 297 298 300 301 302 303 304 306 307 309 310 311 312 311 312 313 315 315 318 323 327 328 327 328 329 329
291 287 285 291 288 288 288 287 289 288 285 279 278 282 293 293 295 295 297 298 300 300 300 302 304 306 307 308 309 309 309 309 310 311 312 313 314 317 322 326 327 328 328 329
292 288 282 285 292 294 292 289 289 283 281 284 283 283 295 296 296 297 297 297 299 300 301 303 304 305 306 307 308 309 309 309 310 308 308 309 310 313 317 322 325 327 327 328
292 286 281 282 287 290 288 291 291 290 289 283 281 283 295 296 296 296 296 298 299 300 301 303 304 304 304 306 307 308 308 309 309 307 307 307 307 309 312 318 323 325 326 326
295 288 284 280 283 287 284 288 291 290 283 284 285 286 291 293 294 295 297 298 299 300 301 302 301 303 304 305 306 307 307 308 307 306 307 306 306 308 310 316 321 323 324 324
292 284 286 287 288 287 287 286 287 287 288 284 286 287 290 293 294 295 297 298 299 300 299 300 301 303 304 305 306 307 307 307 307 307 306 305 307 309 311 315 320 322 321 322
293 285 287 284 288 288 285 286 287 288 288 288 288 288 294 295 296 296 297 298 298 297 298 300 302 302 303 304 306 307 307 307 308 307 305 305 306 309 312 316 318 319 319 319
289 286 283 279 284 284 280 284 286 287 289 288 284 289 294 294 295 296 297 297 296 297 299 301 301 301 303 304 307 307 307 307 306 304 304 303 306 309 312 315 313 311 315 316
287 285 285 280 281 273 284 290 290 287 288 290 291 292 294 295 297 298 299 296 296 299 299 299 300 301 302 303 305 305 305 304 303 301 301 302 303 306 309 306 307 308 310 311
292 286 282 278 278 283 285 287 286 286 286 291 290 292 294 295 297 296 297 299 299 299 299 300 301 300 300 300 301 301 299 299 298 297 297 297 298 298 300 300 304 302 298 298
290 289 284 281 276 274 284 288 292 292 281 291 293 292 293 295 287 291 299 299 298 299 299 298 298 298 297 298 297 294 294 296 296 295 294 294 294 294 298 298 294 288 293 291
282 283 280 280 279 283 290 288 292 279 283 292 292 293 293 290 293 297 298 296 297 297 297 297 296 294 293 294 291 291 293 293 294 290 288 288 289 289 290 288 288 288 289 289
282 281 280 281 279 276 291 288 284 289 294 294 293 293 294 296 296 295 295 294 294 294 294 292 291 290 290 291 288 288 289 292 288 287 287 287 287 286 286 287 288 288 288 288
281 286 284 285 284 292 292 291 293 295 293 294 294 296 295 293 292 293 292 292 291 290 289 289 288 287 288 288 286 285 288 287 286 286 286 286 286 286 286 287 289 289 289 288
287 291 286 285 289 291 291 293 294 294 293 295 295 293 292 290 290 288 288 288 287 288 287 287 286 285 285 287 285 285 286 286 286 286 286 286 286 286 286 287 287 287 288 287
289 288 286 286 289 290 292 292 293 292 293 290 289 289 289 288 286 286 285 285 285 285 285 285 283 283 283 285 284 285 285 286 285 285 284 285 285 285 285 285 286 287 287 288
286 286 284 284 289 289 290 292 293 292 290 289 287 286 286 284 283 284 283 284 283 282 283 281 281 282 282 282 282 283 285 285 285 284 284 285 285 285 284 285 284 288 288 288
Wind_Speed
14 11 13 17 17 16 4 11 14 13 10 8 15 21 20 19 20 18 18 18 18 18 19 17 15 13 14 16 17 19 19 18 14 13 13 12 13 12 12 11 16 16 14 17
10 18 16 13 14 16 16 14 14 12 8 11 19 24 22 21 22 23 23 23 22 22 21 18 18 16 16 16 17 18 18 17 16 12 13 12 11 11 11 11 13 16 17 17
18 1 18 16 12 14 17 18 15 15 14 16 22 26 25 23 26 26 25 26 24 23 21 18 16 16 14 16 16 15 16 16 17 18 11 11 10 10 11 13 13 16 18 18
16 15 10 18 18 16 17 15 14 13 9 8 4 11 17 17 14 15 14 15 17 16 16 14 14 13 13 10 12 13 15 15 15 17 15 18 14 14 15 13 13 14 19 19
10 14 15 16 18 16 13 3 8 10 12 15 16 13 6 11 14 15 13 14 14 11 10 10 9 9 10 9 10 10 13 15 15 16 19 16 18 13 12 11 16 17 16 20
16 0 14 18 12 14 5 7 3 4 6 10 15 16 11 15 15 12 7 7 7 6 5 6 8 9 10 8 8 9 13 15 14 16 19 21 21 19 15 15 13 13 14 15
12 12 3 7 13 14 14 13 4 5 6 11 6 14 16 5 6 3 6 6 3 4 6 9 11 10 9 8 8 9 12 14 14 15 18 21 23 23 22 20 15 16 14 14
14 12 19 15 19 11 23 18 6 8 10 8 11 14 7 4 6 5 9 9 3 7 8 8 8 8 9 10 10 11 11 12 14 15 17 18 22 15 17 19 16 15 15 16
15 14 22 18 15 16 16 23 16 9 3 5 10 16 15 14 11 4 7 8 7 6 7 7 9 11 14 15 14 13 13 12 13 16 16 17 18 22 19 23 20 17 18 15
8 6 8 17 18 19 15 10 12 10 7 10 12 19 14 1 3 9 8 8 6 8 10 11 13 13 13 14 13 14 15 16 17 16 15 15 18 20 21 20 22 21 20 20
11 10 4 13 15 19 14 14 13 13 13 7 12 15 9 3 6 3 2 6 10 12 13 16 15 13 13 15 15 15 16 18 17 14 14 15 16 18 20 20 21 21 21 21
22 6 8 15 8 19 21 19 23 10 10 14 17 28 4 3 11 11 11 9 12 14 17 16 15 17 17 16 16 16 16 17 14 13 15 16 17 17 20 21 22 21 22 22
21 10 9 5 10 10 15 23 20 21 15 21 15 22 4 9 11 16 15 13 15 16 17 16 18 17 18 18 18 18 18 18 16 14 16 18 17 17 20 22 22 21 22 22
22 8 18 15 8 13 19 22 24 21 14 23 19 34 26 25 21 19 19 17 17 16 18 18 16 16 17 17 19 20 21 18 17 17 17 18 17 18 19 20 20 20 20 21
16 14 19 19 10 9 12 22 22 26 28 23 26 26 34 26 21 19 21 18 19 18 17 16 17 17 18 19 19 19 19 19 16 17 17 18 18 17 18 19 19 18 18 18
17 8 16 16 18 19 12 16 23 26 27 26 29 28 30 29 24 24 20 19 18 16 18 17 18 18 20 20 18 17 17 17 14 18 18 17 17 15 16 17 16 16 17 16
18 9 7 9 16 13 13 34 23 25 25 23 25 33 27 25 24 21 17 16 18 19 17 15 19 20 17 18 17 18 18 16 15 14 16 17 15 16 15 13 11 12 14 12
19 15 6 2 7 11 15 14 18 28 28 26 26 26 21 24 24 22 14 14 15 14 15 19 16 19 19 18 17 16 15 15 13 14 15 13 13 15 12 8 12 11 10 14
17 13 7 8 14 8 15 14 10 13 19 25 26 28 32 25 20 25 15 11 12 12 15 15 16 18 19 19 18 13 14 14 12 13 12 11 14 16 12 11 11 8 7 6
16 18 10 9 10 10 12 2 16 10 17 15 24 29 23 16 14 12 6 12 14 13 11 15 17 18 17 18 12 13 14 12 14 10 12 11 11 12 12 10 8 4 4 6
14 14 17 12 9 8 8 6 15 9 4 4 11 16 14 13 11 8 10 13 13 14 16 15 15 15 16 15 11 14 12 14 11 9 9 7 7 7 5 2 1 3 7 8
19 15 11 13 14 17 15 17 24 9 5 6 6 9 6 7 7 10 11 12 14 16 17 15 14 16 15 11 9 13 14 11 8 8 6 5 5 3 1 3 3 6 9 11
11 13 11 16 18 3 17 17 15 9 1 4 6 6 5 8 9 10 10 13 13 13 12 12 11 17 16 11 7 12 14 6 6 5 5 4 3 4 3 4 7 7 8 10
8 14 7 5 11 17 11 16 10 7 10 6 2 2 3 7 7 8 8 9 10 11 12 11 14 15 17 12 9 10 11 6 4 4 4 3 3 4 4 2 3 4 6 7
6 11 12 6 11 4 15 16 9 9 5 4 3 2 4 6 6 7 8 10 11 11 11 10 13 14 16 13 12 9 9 5 3 2 2 2 3 3 6 7 5 6 7 6
6 8 12 12 22 11 16 12 14 13 7 4 3 2 2 4 8 9 10 10 10 12 12 12 13 13 14 11 10 8 7 4 4 2 2 1 5 3 4 6 11 21 20 21
Wind_Direction
195 202 207 207 217 242 288 291 257 250 252 293 261 264 264 260 261 264 258 258 257 252 250 250 245 244 236 231 222 219 217 211 203 203 203 208 210 207 211 212 205 202 200 197
187 228 220 217 224 237 248 257 257 260 272 267 280 276 275 266 257 254 254 253 250 250 250 250 249 242 241 240 231 230 225 219 212 214 211 210 209 212 212 213 210 208 207 202
207 179 210 214 213 221 233 238 250 264 282 284 281 282 265 252 237 247 249 252 254 257 260 258 256 255 245 244 240 240 234 228 219 217 215 220 219 217 215 212 213 211 209 206
231 227 211 207 222 210 232 225 247 264 283 264 115 291 287 284 241 232 244 250 250 253 258 265 270 274 274 268 260 243 248 235 229 219 216 217 219 216 220 212 213 210 211 208
209 205 190 212 222 225 248 248 229 261 265 280 268 271 253 234 247 248 250 248 251 253 257 268 276 275 273 262 265 248 249 247 229 223 221 220 224 230 230 220 215 212 210 212
225 353 218 221 220 217 174 164 186 248 263 257 234 236 257 245 241 241 258 223 227 239 251 271 291 293 283 280 269 255 252 254 244 232 227 229 231 226 226 221 218 215 211 206
223 201 223 221 193 198 190 174 176 216 209 250 229 217 247 302 308 229 261 211 223 303 261 280 293 298 308 303 283 270 258 253 257 250 235 231 232 235 233 232 221 212 213 208
193 211 203 195 195 185 201 191 204 226 224 261 179 237 251 178 307 277 229 260 312 296 291 294 305 317 314 303 282 275 264 259 258 255 248 238 234 234 239 236 233 227 219 213
201 231 184 180 202 183 197 220 225 289 220 275 246 253 247 241 207 234 262 277 290 255 306 329 318 292 288 292 282 278 275 268 257 257 255 248 243 235 234 237 234 232 227 217
182 201 189 194 210 220 236 190 204 219 234 242 247 261 248 153 215 189 228 269 321 314 308 301 282 286 290 289 284 273 267 269 274 270 261 255 250 244 239 237 237 232 232 221
217 232 135 171 210 202 204 220 218 218 224 255 274 257 266 251 74 103 61 276 299 320 302 292 301 296 291 287 284 274 273 273 275 270 267 264 260 253 247 239 238 238 232 226
199 212 193 209 220 225 218 215 211 214 207 228 256 267 238 310 314 298 286 297 310 293 294 299 300 302 302 295 290 285 276 268 268 271 275 268 266 257 249 243 237 232 233 227
180 213 192 197 215 220 232 223 223 230 252 243 228 261 206 256 293 299 294 304 293 293 303 313 307 302 300 300 298 293 284 277 273 269 262 265 262 257 250 243 237 233 229 228
167 180 210 211 209 182 206 221 225 224 225 246 245 270 272 276 283 291 292 294 296 314 310 303 302 304 307 303 299 296 288 279 276 274 273 270 265 260 254 246 237 231 229 230
181 219 209 235 209 195 204 218 219 225 237 234 252 253 268 274 282 287 292 300 303 303 302 309 311 311 308 304 297 292 288 284 279 273 274 269 268 264 258 249 238 229 227 225
199 222 220 227 243 251 244 234 230 229 238 240 253 258 266 276 281 281 285 295 299 313 308 311 308 307 310 310 302 297 290 285 278 279 278 275 273 266 254 249 240 231 224 220
187 182 164 221 216 232 250 238 231 240 237 234 238 245 256 270 268 268 285 301 312 302 304 310 315 308 305 307 306 301 297 289 284 282 279 277 273 266 255 244 231 220 218 207
187 192 182 169 141 207 239 229 228 228 236 230 241 250 254 254 269 278 295 303 289 299 324 314 311 311 308 306 301 303 303 294 287 280 273 274 273 268 259 218 219 211 204 201
196 188 181 190 205 284 285 214 197 198 240 227 235 245 249 260 275 276 283 270 325 315 305 305 307 310 307 304 305 308 301 292 282 271 276 272 268 265 251 229 217 199 174 180
202 203 206 193 212 219 259 302 182 198 265 215 213 235 246 250 251 270 303 337 315 309 304 307 311 311 306 306 317 303 296 290 277 285 279 276 264 254 247 229 198 184 173 153
197 197 202 201 217 247 227 162 159 176 229 137 209 225 239 240 243 294 336 307 306 310 308 317 314 308 304 305 307 293 296 283 289 289 285 283 270 250 238 199 145 135 123 119
180 188 191 214 215 244 158 162 186 189 131 131 182 229 225 255 287 289 290 295 305 311 318 323 314 310 310 303 298 293 289 297 295 294 295 303 303 313 265 146 111 126 125 124
206 196 186 201 205 119 169 203 226 244 201 177 194 187 205 248 271 297 301 303 302 303 304 312 311 308 305 302 288 293 290 293 296 296 306 312 333 358 325 144 141 137 135 134
227 203 208 151 234 232 190 220 234 225 235 231 175 203 262 273 296 296 296 293 298 304 310 313 312 307 302 307 293 278 289 293 288 315 305 331 332 66 358 23 68 88 116 109
168 155 207 244 251 258 218 216 224 239 206 172 156 172 267 295 279 284 285 291 294 301 307 309 303 298 296 304 298 301 297 306 324 314 304 53 26 29 76 58 44 81 55 80
182 181 190 212 230 226 241 200 206 217 186 166 153 215 206 265 282 297 288 287 293 298 305 304 296 294 294 299 299 304 308 320 303 282 301 326 93 26 41 97 88 65 79 80